Regional Weather Roundup
Issued by NWS

Home | Current Version | Previous Version | Text Only | Print | Product List | Glossary On
Versions: 1 2 3 4 5 6 7 8 9 10 11 12 13 14 15 16 17 18 19 20 21 22 23 24 25 26 27 28 29 30 31 32 33 34 35 36 37 38 39 40 41 42 43 44 45 46 47 48 49 50
000
ASUS43 KBIS 051702
RWRND

NORTH DAKOTA REGIONAL WEATHER ROUNDUP
NATIONAL WEATHER SERVICE BISMARCK ND
1200 PM CDT SUN JUL 05 2015

NOTE: "FAIR" INDICATES FEW OR NO CLOUDS BELOW 12,000 FEET WITH NO
SIGNIFICANT WEATHER AND/OR OBSTRUCTIONS TO VISIBILITY.


NDZ001>003-009>011-017-051800-
NORTHWEST NORTH DAKOTA

CITY           SKY/WX    TMP DP  RH WIND       PRES   REMARKS
WILLISTON      CLOUDY    74  56  53 N17G25    29.95R HAZE
MINOT          PTSUNNY   70  62  76 NW8       29.85R HAZE
$$

NDZ018>021-031>035-040>046-051800-
SOUTHWEST NORTH DAKOTA

CITY           SKY/WX    TMP DP  RH WIND       PRES   REMARKS
BISMARCK       LGT RAIN  68  64  87 E10       29.78F
DICKINSON      PTSUNNY   70  62  76 NW17G24   29.88R
GARRISON         N/A     71  62  73 N7        29.85R
HETTINGER ARPT PTSUNNY   69  62  78 NE18      29.85R
$$

NDZ004>008-012>016-024-026-027-054-051800-
NORTHEAST NORTH DAKOTA

CITY           SKY/WX    TMP DP  RH WIND       PRES   REMARKS
GRAND FORKS    TSTM      67  66  97 NW10G28   29.82R FOG
GRND FRKS AFB  TSTM      67  65  95 N1        29.81S FOG
DEVILS LAKE    CLOUDY    66  61  82 NE14      29.74F
$$

NDZ022-023-025-028>030-036>039-047>053-051800-
SOUTHEAST NORTH DAKOTA

CITY           SKY/WX    TMP DP  RH WIND       PRES   REMARKS
FARGO          CLOUDY    84  69  60 SW16      29.74S
JAMESTOWN      CLOUDY    68  63  84 N10       29.79R
$$




USA.gov is the U.S. government's official web portal to all federal, state and local government web resources and services.